SVR0301 HEGN-URSS

Flight info

Callsign SVR0301
Flight time N/A
Altitude 36000
Route SOLOX V603 GIDID DCT KAPIT L677 CVO A16 RASDA M855 TOMBI UM855 AYT UM853 BUK UW71 CRM UG901 BALUM/K0817F360 DCT KEPOL G487 DIRUN
Aircraft A320/M-SDE3FGHIRWY/LB1

Departure

Time 2026-04-30 14:29
Airport Hurghada International Airport (HEGN)

Arrival

Time N/A
Airport Sochi International Airport (URSS)
Time Latitude Longitude Altitude Speed Heading
2026-04-30 14:09 27.18071 33.80588 58 ft 0 kts 65°
2026-04-30 14:20 27.18051 33.80538 50 ft 4 kts 68°
2026-04-30 14:21 27.18041 33.80510 50 ft 4 kts 73°
2026-04-30 14:21 27.18036 33.80481 51 ft 4 kts 101°
2026-04-30 14:21 27.18043 33.80465 54 ft 0 kts 165°
2026-04-30 14:23 27.18043 33.80466 54 ft 1 kts 165°
2026-04-30 14:23 27.17961 33.80490 52 ft 10 kts 165°
2026-04-30 14:24 27.17830 33.80405 54 ft 15 kts 255°
2026-04-30 14:24 27.17772 33.80303 53 ft 18 kts 196°
2026-04-30 14:25 27.17516 33.80371 53 ft 19 kts 165°
2026-04-30 14:25 27.17249 33.80451 51 ft 21 kts 165°
2026-04-30 14:26 27.16990 33.80527 52 ft 17 kts 166°
2026-04-30 14:26 27.16879 33.80559 50 ft 16 kts 165°
2026-04-30 14:26 27.16650 33.80627 48 ft 17 kts 166°
2026-04-30 14:27 27.16534 33.80661 48 ft 18 kts 165°
2026-04-30 14:27 27.16406 33.80697 43 ft 20 kts 166°
2026-04-30 14:27 27.16265 33.80740 43 ft 21 kts 164°
2026-04-30 14:28 27.16131 33.80646 42 ft 12 kts 273°
2026-04-30 14:28 27.16182 33.80593 43 ft 6 kts 343°
2026-04-30 14:28 27.16185 33.80592 43 ft 0 kts 344°
2026-04-30 14:28 27.16221 33.80581 42 ft 27 kts 345°
2026-04-30 14:29 27.17462 33.80216 51 ft 146 kts 346°
2026-04-30 14:29 27.19272 33.79664 907 ft 160 kts 348°
2026-04-30 14:30 27.23319 33.78319 2174 ft 217 kts 343°
2026-04-30 14:31 27.26463 33.77280 3367 ft 244 kts 342°
2026-04-30 14:31 27.29818 33.76180 4953 ft 257 kts 340°
2026-04-30 14:31 27.31547 33.75616 5772 ft 261 kts 339°
2026-04-30 14:32 27.35148 33.74724 7321 ft 273 kts 353°
2026-04-30 14:32 27.37057 33.74607 8109 ft 276 kts 353°
2026-04-30 14:32 27.38982 33.74489 8931 ft 279 kts 353°
2026-04-30 14:33 27.40923 33.74373 9762 ft 281 kts 353°
2026-04-30 14:33 27.45027 33.74118 10466 ft 318 kts 354°
2026-04-30 14:33 27.47284 33.73973 10692 ft 337 kts 354°
2026-04-30 14:34 27.49658 33.73823 11245 ft 345 kts 353°
2026-04-30 14:34 27.52064 33.73676 11922 ft 349 kts 354°
2026-04-30 14:34 27.54511 33.73529 12591 ft 354 kts 354°
2026-04-30 14:34 27.56982 33.73377 13239 ft 358 kts 354°
2026-04-30 14:35 27.61145 33.73040 14286 ft 363 kts 351°
2026-04-30 14:35 27.64506 33.72556 15092 ft 366 kts 348°
2026-04-30 14:35 27.67032 33.72130 15697 ft 368 kts 348°
2026-04-30 14:36 27.69575 33.71687 16317 ft 371 kts 348°
2026-04-30 14:36 27.72133 33.71249 16947 ft 373 kts 348°
2026-04-30 14:36 27.74710 33.70824 17572 ft 375 kts 348°
2026-04-30 14:36 27.77308 33.70413 18191 ft 378 kts 348°
2026-04-30 14:37 27.79925 33.70007 18731 ft 381 kts 348°
2026-04-30 14:37 27.82523 33.69606 19241 ft 384 kts 348°
2026-04-30 14:37 27.85179 33.69198 19764 ft 387 kts 347°
2026-04-30 14:37 27.87855 33.68786 20283 ft 390 kts 347°
2026-04-30 14:38 27.90554 33.68367 20797 ft 393 kts 347°
2026-04-30 14:38 27.93275 33.67943 21298 ft 396 kts 347°
2026-04-30 14:38 27.96011 33.67516 21787 ft 398 kts 347°
2026-04-30 14:38 27.98767 33.67084 22265 ft 401 kts 347°
2026-04-30 14:39 28.01545 33.66647 22733 ft 404 kts 346°
2026-04-30 14:39 28.04347 33.66206 23195 ft 407 kts 346°
2026-04-30 14:39 28.07162 33.65765 23624 ft 410 kts 346°
2026-04-30 14:40 28.12810 33.64880 24345 ft 414 kts 346°
2026-04-30 14:40 28.15675 33.64434 24699 ft 416 kts 346°
2026-04-30 14:40 28.18523 33.63902 25065 ft 413 kts 340°
2026-04-30 14:40 28.21233 33.62879 25423 ft 407 kts 330°
2026-04-30 14:41 28.23709 33.61367 25774 ft 403 kts 321°
2026-04-30 14:41 28.25918 33.59440 26134 ft 400 kts 315°
2026-04-30 14:41 28.28049 33.57394 26484 ft 402 kts 315°
2026-04-30 14:41 28.30190 33.55346 26849 ft 403 kts 315°
2026-04-30 14:42 28.32336 33.53293 27198 ft 405 kts 315°
2026-04-30 14:42 28.34492 33.51232 27579 ft 406 kts 315°
2026-04-30 14:42 28.36655 33.49161 27897 ft 407 kts 315°
2026-04-30 14:42 28.38826 33.47079 28202 ft 409 kts 315°
2026-04-30 14:43 28.41000 33.44993 28511 ft 410 kts 315°
2026-04-30 14:43 28.43154 33.42923 28814 ft 411 kts 315°
2026-04-30 14:43 28.45337 33.40821 29104 ft 412 kts 315°
2026-04-30 14:43 28.47528 33.38711 29369 ft 413 kts 315°
2026-04-30 14:44 28.49726 33.36597 29634 ft 414 kts 315°
2026-04-30 14:44 28.51930 33.34479 29952 ft 414 kts 315°
2026-04-30 14:44 28.54129 33.32368 30262 ft 413 kts 315°
2026-04-30 14:44 28.56326 33.30257 30566 ft 412 kts 315°
2026-04-30 14:45 28.58507 33.28154 30881 ft 410 kts 315°
2026-04-30 14:45 28.60676 33.26055 31180 ft 409 kts 315°
2026-04-30 14:45 28.62841 33.23961 31489 ft 408 kts 315°
2026-04-30 14:45 28.64998 33.21874 31799 ft 406 kts 315°
2026-04-30 14:46 28.67151 33.19792 32141 ft 405 kts 315°
2026-04-30 14:46 28.69300 33.17717 32431 ft 404 kts 315°
2026-04-30 14:46 28.71442 33.15647 32725 ft 403 kts 315°
2026-04-30 14:46 28.72856 33.14277 32926 ft 403 kts 315°
2026-04-30 14:47 28.75706 33.11512 33336 ft 401 kts 315°
2026-04-30 14:47 28.77838 33.09445 33644 ft 400 kts 315°
2026-04-30 14:47 28.79954 33.07395 33952 ft 399 kts 315°
2026-04-30 14:47 28.82062 33.05350 34207 ft 398 kts 315°
2026-04-30 14:48 28.84172 33.03306 34444 ft 397 kts 315°
2026-04-30 14:48 28.86257 33.01287 34662 ft 397 kts 314°
2026-04-30 14:48 28.88365 32.99239 34878 ft 397 kts 314°
2026-04-30 14:48 28.90467 32.97193 35086 ft 398 kts 314°
2026-04-30 14:49 28.92573 32.95144 35283 ft 398 kts 314°
2026-04-30 14:49 28.94680 32.93092 35494 ft 398 kts 314°
2026-04-30 14:49 28.96786 32.91040 35679 ft 398 kts 314°
2026-04-30 14:49 28.98892 32.88991 35868 ft 398 kts 314°
2026-04-30 14:50 29.05234 32.82803 35957 ft 400 kts 314°
2026-04-30 14:51 29.11567 32.76613 35962 ft 400 kts 314°
2026-04-30 14:52 29.17231 32.71072 35974 ft 400 kts 314°
2026-04-30 14:52 29.23586 32.64848 35967 ft 400 kts 314°
2026-04-30 14:53 29.29625 32.58321 35989 ft 393 kts 304°
2026-04-30 14:54 29.36353 32.48493 36025 ft 393 kts 304°
2026-04-30 14:55 29.41427 32.41102 36013 ft 392 kts 304°
2026-04-30 14:56 29.48172 32.31250 36015 ft 392 kts 304°
2026-04-30 14:57 29.53197 32.23874 36023 ft 392 kts 304°
2026-04-30 14:58 29.59923 32.14001 36027 ft 392 kts 304°
2026-04-30 14:58 29.64966 32.06589 36035 ft 392 kts 304°
2026-04-30 15:00 29.73339 31.94220 36035 ft 391 kts 304°
2026-04-30 15:01 29.79999 31.84332 36043 ft 390 kts 303°
2026-04-30 15:01 29.84789 31.76838 36027 ft 389 kts 303°
2026-04-30 15:02 29.87980 31.71809 36018 ft 389 kts 303°
2026-04-30 15:03 29.96036 31.59285 35991 ft 389 kts 303°
2026-04-30 15:04 30.04136 31.46771 35980 ft 389 kts 303°
2026-04-30 15:05 30.09721 31.39940 35978 ft 401 kts 323°
2026-04-30 15:06 30.15075 31.37763 36001 ft 420 kts 343°
2026-04-30 15:07 30.26639 31.35667 35986 ft 421 kts 343°
2026-04-30 15:08 30.38207 31.33533 35985 ft 421 kts 343°
2026-04-30 15:09 30.52633 31.30894 35988 ft 419 kts 343°
2026-04-30 15:10 30.64123 31.28774 36001 ft 419 kts 343°
2026-04-30 15:11 30.81406 31.25585 36005 ft 419 kts 343°
2026-04-30 15:13 30.95797 31.22918 36036 ft 419 kts 343°
2026-04-30 15:14 31.15911 31.19179 36053 ft 418 kts 343°
2026-04-30 15:17 31.41763 31.14338 36057 ft 417 kts 343°
2026-04-30 15:19 31.64846 31.10904 36036 ft 422 kts 348°